Weather History for Coatesville, PA

Change the Weather History Date:

Tuesday, March 26, 2013

  Actual Average (KLNS) Record (KLNS)
Temperature  
Mean Temperature 42 °F -  
Max Temperature 50 °F 52 °F 75 °F (2004)
Min Temperature 33 °F 33 °F 21 °F (1983)
Degree Days  
Heating Degree Days 24    
Moisture  
Dew Point 32 °F    
Average Humidity 78    
Maximum Humidity 100    
Minimum Humidity 40    
Precipitation  
Precipitation 0.02 in - - ()
Sea Level Pressure  
Sea Level Pressure 29.80 in    
Wind  
Wind Speed 9 mph (NW)    
Max Wind Speed 14 mph    
Max Gust Speed 21 mph    
Visibility 8 miles    
Events Snow    
Averages and records for this station are not official NWS values.
T = Trace of Precipitation, MM = Missing Value Source: NWS Daily Summary

Daily Weather History Graph

Daily Weather History Graph

Search for Another Location

Airport:

Trip Planner

Search our weather history database for the weather conditions in past years. The results will help you decide how hot, cold, wet, or windy it might be!

Date:

Astronomy

Mar. 26, 2013 Rise Set
Actual Time 6:56 AM EDT 7:21 PM EDT
Civil Twilight 6:29 AM EDT 7:49 PM EDT
Nautical Twilight 5:57 AM EDT 8:20 PM EDT
Astronomical Twilight 5:25 AM EDT 8:53 PM EDT
Moon 6:56 PM EDT (3/26) 6:12 AM EDT (3/26)
Length of Visible Light 13h 19m
Length of Day
12h 25m
Waxing Gibbous, 99% of the Moon is Illuminated
Mar 26
Waxing Gibbous
Mar 27
Full
Apr 3
Last Quarter
Apr 10
New
Apr 18
First Quarter

Hourly Weather History & Observations

Time (EDT) Temp. Windchill Dew Point Humidity Pressure Visibility Wind Dir Wind Speed Gust Speed Precip Events Conditions
12:15 AM 33.8 °F 26.4 °F 33.8 °F 100% 29.66 in 4.0 mi NW 9.2 mph - N/A   Overcast
12:35 AM 33.8 °F 25.8 °F 33.8 °F 100% 29.66 in 3.0 mi NW 10.4 mph - N/A   Overcast
12:55 AM 33.8 °F 26.4 °F 33.8 °F 100% 29.67 in 3.0 mi NW 9.2 mph - N/A   Overcast
1:15 AM 33.8 °F 25.8 °F 33.8 °F 100% 29.67 in 2.5 mi WNW 10.4 mph - 0.01 in Snow Light Snow
1:35 AM 33.8 °F 26.4 °F 33.8 °F 100% 29.68 in 2.5 mi NW 9.2 mph - 0.02 in Snow Light Snow
1:55 AM 33.8 °F 26.4 °F 33.8 °F 100% 29.68 in 2.5 mi NW 9.2 mph - 0.02 in   Overcast
2:15 AM 33.8 °F 27.0 °F 33.8 °F 100% 29.68 in 3.0 mi NW 8.1 mph - N/A   Mostly Cloudy
2:35 AM 33.8 °F 27.0 °F 33.8 °F 100% 29.68 in 3.0 mi WNW 8.1 mph - N/A   Partly Cloudy
2:55 AM 33.8 °F 27.7 °F 33.8 °F 100% 29.69 in 3.0 mi WNW 6.9 mph - N/A   Scattered Clouds
3:15 AM 33.8 °F 27.0 °F 33.8 °F 100% 29.69 in 3.0 mi WNW 8.1 mph - N/A   Mostly Cloudy
3:35 AM 33.8 °F 26.4 °F 33.8 °F 100% 29.69 in 3.0 mi WNW 9.2 mph - N/A   Scattered Clouds
3:55 AM 33.8 °F 27.0 °F 33.8 °F 100% 29.70 in 3.0 mi NW 8.1 mph - N/A   Scattered Clouds
4:15 AM 33.8 °F 27.0 °F 33.8 °F 100% 29.70 in 3.0 mi NW 8.1 mph - N/A   Scattered Clouds
4:35 AM 33.8 °F 28.6 °F 32.0 °F 93% 29.70 in 3.0 mi WNW 5.8 mph - N/A   Mostly Cloudy
5:15 AM 33.8 °F 26.4 °F 32.0 °F 93% 29.71 in 4.0 mi NW 9.2 mph - N/A   Mostly Cloudy
5:55 AM 33.8 °F 27.0 °F 32.0 °F 93% 29.72 in 5.0 mi NW 8.1 mph - N/A   Overcast
6:15 AM 33.8 °F 27.0 °F 32.0 °F 93% 29.73 in 7.0 mi WNW 8.1 mph - N/A   Overcast
6:35 AM 33.8 °F 27.0 °F 32.0 °F 93% 29.74 in 8.0 mi WNW 8.1 mph - N/A   Overcast
7:15 AM 33.8 °F 27.0 °F 32.0 °F 93% 29.75 in 5.0 mi WNW 8.1 mph - N/A   Mostly Cloudy
7:35 AM 33.8 °F 27.0 °F 32.0 °F 93% 29.76 in 5.0 mi WNW 8.1 mph - N/A   Mostly Cloudy
7:55 AM 33.8 °F 27.0 °F 32.0 °F 93% 29.77 in 7.0 mi WNW 8.1 mph - N/A   Overcast
8:15 AM 33.8 °F 27.0 °F 32.0 °F 93% 29.78 in 8.0 mi WNW 8.1 mph - N/A   Overcast
8:35 AM 33.8 °F 25.8 °F 32.0 °F 93% 29.79 in 9.0 mi WNW 10.4 mph - N/A   Overcast
8:55 AM 35.6 °F 28.6 °F 32.0 °F 87% 29.79 in 10.0 mi WNW 9.2 mph - N/A   Overcast
9:15 AM 35.6 °F 28.0 °F 32.0 °F 87% 29.79 in 10.0 mi WNW 10.4 mph - N/A   Overcast
9:35 AM 35.6 °F 28.6 °F 32.0 °F 87% 29.80 in 9.0 mi WNW 9.2 mph - N/A   Overcast
9:55 AM 35.6 °F 29.2 °F 32.0 °F 87% 29.80 in 10.0 mi WNW 8.1 mph - N/A   Overcast
10:15 AM 37.4 °F 31.4 °F 32.0 °F 81% 29.81 in 10.0 mi WNW 8.1 mph - N/A   Overcast
10:35 AM 37.4 °F 29.8 °F 32.0 °F 81% 29.81 in 10.0 mi NW 11.5 mph - N/A   Overcast
10:55 AM 39.2 °F 32.0 °F 32.0 °F 75% 29.81 in 10.0 mi WNW 11.5 mph 16.1 mph N/A   Mostly Cloudy
11:15 AM 39.2 °F 32.5 °F 32.0 °F 75% 29.81 in 10.0 mi NW 10.4 mph - N/A   Overcast
11:35 AM 39.2 °F 32.5 °F 32.0 °F 75% 29.82 in 10.0 mi WNW 10.4 mph - N/A   Overcast
11:55 AM 41.0 °F 34.3 °F 32.0 °F 70% 29.82 in 10.0 mi WNW 11.5 mph - N/A   Mostly Cloudy
12:15 PM 42.8 °F 36.6 °F 32.0 °F 66% 29.82 in 10.0 mi WNW 11.5 mph - N/A   Overcast
12:35 PM 44.6 °F 39.2 °F 32.0 °F 61% 29.81 in 10.0 mi NW 10.4 mph - N/A   Scattered Clouds
1:15 PM 46.4 °F 40.4 °F 33.8 °F 62% 29.81 in 10.0 mi NNW 13.8 mph 17.3 mph N/A   Partly Cloudy
1:35 PM 46.4 °F 40.7 °F 33.8 °F 62% 29.82 in 10.0 mi WNW 12.7 mph - N/A   Partly Cloudy
1:55 PM 48.2 °F - 32.0 °F 54% 29.81 in 10.0 mi NW 12.7 mph 20.7 mph N/A   Clear
2:15 PM 48.2 °F - 32.0 °F 54% 29.81 in 10.0 mi West 13.8 mph - N/A   Clear
2:35 PM 48.2 °F - 32.0 °F 54% 29.82 in 10.0 mi WNW 10.4 mph 17.3 mph N/A   Scattered Clouds
2:55 PM 46.4 °F 40.7 °F 30.2 °F 53% 29.81 in 10.0 mi NW 12.7 mph 16.1 mph N/A   Mostly Cloudy
3:15 PM 48.2 °F - 28.4 °F 46% 29.81 in 10.0 mi NW 12.7 mph - N/A   Mostly Cloudy
3:35 PM 48.2 °F - 24.8 °F 40% 29.81 in 10.0 mi NNW 8.1 mph - N/A   Mostly Cloudy
4:15 PM 48.2 °F - 28.4 °F 46% 29.81 in 10.0 mi NW 10.4 mph - N/A   Scattered Clouds
4:35 PM 50.0 °F - 28.4 °F 43% 29.80 in 10.0 mi WNW 13.8 mph 17.3 mph N/A   Scattered Clouds
4:55 PM 48.2 °F - 24.8 °F 40% 29.81 in 10.0 mi WNW 13.8 mph - N/A   Mostly Cloudy
5:15 PM 48.2 °F - 26.6 °F 43% 29.81 in 10.0 mi WNW 12.7 mph - N/A   Partly Cloudy
5:35 PM 46.4 °F 41.5 °F 26.6 °F 46% 29.82 in 10.0 mi West 10.4 mph - N/A   Partly Cloudy
5:55 PM 46.4 °F 41.9 °F 26.6 °F 46% 29.82 in 10.0 mi WNW 9.2 mph - N/A   Mostly Cloudy
6:15 PM 46.4 °F 40.4 °F 30.2 °F 53% 29.83 in 10.0 mi NW 13.8 mph - N/A   Overcast
6:35 PM 44.6 °F 38.1 °F 32.0 °F 61% 29.83 in 10.0 mi WNW 13.8 mph 17.3 mph N/A   Scattered Clouds
6:55 PM 44.6 °F 38.8 °F 32.0 °F 61% 29.84 in 10.0 mi WNW 11.5 mph - N/A   Scattered Clouds
7:15 PM 44.6 °F 39.2 °F 32.0 °F 61% 29.86 in 10.0 mi NW 10.4 mph - N/A   Overcast
7:35 PM 41.0 °F 34.7 °F 33.8 °F 76% 29.87 in 10.0 mi North 10.4 mph - N/A   Overcast
7:55 PM 39.2 °F 35.9 °F 33.8 °F 81% 29.88 in 10.0 mi North 4.6 mph - N/A   Mostly Cloudy
8:15 PM 39.2 °F 37.0 °F 33.8 °F 81% 29.88 in 10.0 mi NNW 3.5 mph - N/A   Mostly Cloudy
8:35 PM 39.2 °F 37.0 °F 33.8 °F 81% 29.89 in 10.0 mi NW 3.5 mph - N/A   Mostly Cloudy
8:55 PM 39.2 °F 37.0 °F 33.8 °F 81% 29.90 in 10.0 mi NW 3.5 mph - N/A   Mostly Cloudy
9:15 PM 39.2 °F - 33.8 °F 81% 29.90 in 10.0 mi Calm Calm - N/A   Overcast
9:35 PM 39.2 °F 37.0 °F 33.8 °F 81% 29.91 in 10.0 mi West 3.5 mph - N/A   Mostly Cloudy
9:55 PM 39.2 °F 34.2 °F 33.8 °F 81% 29.91 in 10.0 mi West 6.9 mph - N/A   Overcast
10:15 PM 39.2 °F 33.0 °F 33.8 °F 81% 29.92 in 10.0 mi WNW 9.2 mph - N/A   Overcast
10:35 PM 39.2 °F 32.5 °F 32.0 °F 75% 29.92 in 10.0 mi WNW 10.4 mph - N/A   Scattered Clouds
11:15 PM 39.2 °F 35.0 °F 32.0 °F 75% 29.93 in 10.0 mi NNW 5.8 mph - N/A   Clear
11:35 PM 37.4 °F 30.8 °F 32.0 °F 81% 29.93 in 10.0 mi NW 9.2 mph - N/A   Partly Cloudy
11:55 PM 37.4 °F 30.8 °F 32.0 °F 81% 29.93 in 10.0 mi WNW 9.2 mph - N/A   Mostly Cloudy